www.pogodaiklimat.ru

Погода и климат >> Архив погоды >> Россия >> Магаданская область >> Остров Спафарьева


ПОГОДА на Острове Спафарьева

  • Прогноз погоды на Острове Спафарьева
  • Монитор погоды на Острове Спафарьева

АРХИВ ПОГОДЫ на Острове Спафарьева

Время (UTC), дата Ветер
(напр.,м/с)
 
Видим.   Явления Облачность Т
(С)
Тd
(С)
f
(%)
Тe
(С)
Тes
(С)
Комфортность P
(гПа)
Po
(гПа)
Тmin
(С)
Tmax
(С)
R
(мм)
R24
(мм)
S
(см)
06 11.07 С 8-10
{11}
4000 м туман местами 1/0
[Ci fib]
+8.7 +8.2 97 +4 +5 1010.7 1004.3
09 11.07 СЗ 9-10
{10}
4000 м туман местами 1/0
[Ci fib]
+8.4 +7.5 94 +3 +3 1010.0 1003.7 +9.1
12 11.07 С 9-11
{12}
200 м туман ?/? +7.2 +6.9 98 +2 +2 1010.2 1003.9
15 11.07 С 9-10
{11}
200 м туман ?/? +6.8 +6.5 98 +1 +1 1009.6 1003.2
18 11.07 С 6
{10}
500 м туман ?/? +7.0 +6.7 98 +2 +2 1009.8 1003.5
21 11.07 С 4 50 км {туман} ясно +8.0 +7.4 96 +5 +7 1010.2 1003.8 +6.7
00 12.07 С 4 50 км {туман} ясно +9.5 +7.8 89 +7 +14 1010.0 1003.7
03 12.07 СЗ 3 50 км ясно +13.2 +9.6 79 +12 +23 опасность
простуды
1010.1 1003.9
06 12.07 С 8 50 км ясно +11.5 +9.2 86 +8 +9 1009.6 1003.3
09 12.07 СЗ 7 50 км ясно +10.0 +8.6 91 +6 +6 1010.0 1003.7 +16.3
12 12.07 С 7 50 км 1/0
[Ci fib]
+10.1 +9.3 95 +6 +6 1010.1 1003.8
15 12.07 С 7 50 км 1/0
[Ci fib]
+12.1 +9.5 84 +9 +9 1010.0 1003.7
18 12.07 СЗ 5 50 км ясно +12.1 +9.7 85 +10 +10 1010.3 1004.0
21 12.07 СЗ 4 50 км ясно +15.6 +8.6 63 +15 +18 1009.9 1003.8 +9.2
00 13.07 С 6 50 км ясно +15.7 +10.5 71 +14 +19 1010.2 1004.0
03 13.07 С 8-10
{11}
50 км ясно +13.2 +10.2 82 +10 +13 1009.8 1003.6
06 13.07 СЗ 10-12
{12}
50 км 10/0
[Cs]
+12.5 +10.2 86 +9 +9 1009.5 1003.3
09 13.07 С 9-12
{12}
50 км 10/0
[Cs]
+10.9 +9.7 92 +7 +7 1009.5 1003.2 +16.6
12 13.07 С 10-12
{12}
4000 м туман местами 10/0
[Cs]
+9.5 +9.2 98 +5 +5 1010.0 1003.7
15 13.07 СЗ 10-12
{13}
1000 м туман на расстоянии 10/0
[Cs]
+8.7 +8.4 98 +3 +3 1010.9 1004.5
18 13.07 СЗ 10-11
{13}
200 м туман ?/? +8.4 +8.1 98 +3 +3 1011.4 1005.0
21 13.07 СЗ 8-11
{13}
200 м туман ?/? +8.3 +8.0 98 +3 +3 1012.2 1005.8 +8.2
00 14.07 СЗ 9-12
{13}
200 м туман ?/? +9.1 +8.8 98 +4 +4 1012.3 1006.0
03 14.07 С 11-16
{16}
200 м туман ?/? +9.4 +9.1 98 +4 +4 1012.0 1005.7
06 14.07 СЗ 9-14
{14}
200 м туман ?/? +9.4 +9.2 99 +5 +5 1012.1 1005.7
09 14.07 СЗ 8-12
{15}
200 м туман ?/? +8.7 +8.4 98 +4 +4 1011.9 1005.5 +10.1
12 14.07 СЗ 10-15
{15}
50 м туман ?/? +8.8 +8.5 98 +4 +4 1011.8 1005.5
15 14.07 СЗ 10-13
{18}
50 м туман ?/? +8.6 +8.3 98 +3 +3 1011.9 1005.6
18 14.07 СЗ 8-13
{17}
50 м туман ?/? +9.2 +8.9 98 +5 +5 1012.2 1005.8
21 14.07 СЗ 11-14
{16}
200 м туман ?/? +9.1 +8.8 98 +4 +4 1011.7 1005.3 +8.5
00 15.07 СЗ 10-14
{16}
500 м туман ?/? +9.5 +9.2 98 +5 +5 1012.0 1005.7
03 15.07 СЗ 10-13
{17}
500 м туман ?/? +9.4 +9.1 98 +4 +4 1011.4 1005.1
06 15.07 СЗ 9-15
{16}
200 м туман ?/? +8.9 +8.6 98 +4 +4 1010.9 1004.6
09 15.07 СЗ 11-15
{16}
200 м туман ?/? +8.6 +8.3 98 +3 +3 1010.2 1003.8 +9.7
12 15.07 З 7-11
{15}
200 м слаб. морось {туман} туман ?/? +8.6 +8.3 98 +4 +4 1010.9 1004.6
15 15.07 СЗ 9-12
{13}
500 м туман ?/? +9.4 +9.1 98 +5 +5 1010.2 1003.9
18 15.07 З 4
{12}
200 м слаб. морось {туман} туман ?/? +9.6 +9.3 98 +7 +7 1010.3 1004.0 +8.3 0.6
21 15.07 З 3 200 м слаб. морось {туман} туман ?/? +9.8 +9.5 98 +7 +7 1010.0 1003.7 +8.3 0.6
00 16.07 З 4 200 м морось {туман} ?/? +10.3 +10.0 98 +7 +7 1009.9 1003.6
03 16.07 С 2 500 м туман ?/? +10.8 +10.5 98 +9 +9 1009.3 1003.0
06 16.07 С 4 500 м туман ?/? +10.8 +10.5 98 +8 +8 1008.9 1002.6
09 16.07 СЗ 2 4000 м туман на расстоянии 10/10 200 м
[St]
+9.8 +9.3 97 +8 +8 1009.0 1002.7 +11.1 0.3
12 16.07 С 2 2000 м туман местами 10/10 200 м
[St]
+9.7 +9.4 98 +8 +8 1009.4 1003.1
15 16.07 В 1 500 м слаб. морось {туман} туман ?/? +9.5 +9.2 98 +9 +9 1008.8 1002.5
18 16.07 ЮВ 3 500 м туман ?/? +9.4 +9.1 98 +7 +7 1008.3 1002.0
21 16.07 В 1 50 м морось {туман} ?/? +9.7 +9.4 98 +9 +9 1007.7 1001.4 +8.9 1
00 17.07 ЮВ 1 4000 м слаб. ливневой дождь {морось} туман 10/10 200 м
[Cb cap]
+10.3 +10.0 98 +10 +10 1007.2 1000.9
03 17.07 В 1 200 м слаб. ливневой дождь {туман} туман ?/? +10.2 +9.9 98 +10 +10 1006.7 1000.5
06 17.07 В 2 200 м туман {ливн. осадки} ?/? +9.9 +9.6 98 +8 +8 1006.6 1000.3
09 17.07 СЗ 1 50 м туман ?/? +9.5 +9.2 98 +9 +9 1006.9 1000.6 +10.6 3
12 17.07 штиль 0 200 м туман ?/? +9.6 +9.3 98 +9 +9 1007.5 1001.2
15 17.07 В 1 200 м туман ?/? +9.4 +9.1 98 +9 +9 1007.0 1000.7
18 17.07 штиль 0 200 м слаб. ливневой дождь {туман} туман ?/? +9.5 +9.2 98 +9 +9 1006.9 1000.6
21 17.07 ЮВ 3 500 м туман {ливн. осадки} ?/? +9.9 +9.5 97 +7 +7 1006.6 1000.3 +8.9 1
00 18.07 ЮВ 2 <100 м туман {ливн. осадки} ?/? +10.6 +10.3 98 +9 +9 1007.3 1001.0
03 18.07 В 3 50 м туман ?/? +10.3 +9.9 97 +8 +8 1007.8 1001.5

 

Местоположение метеостанции Остров Спафарьева (Магаданская область, Россия): широта 59.15 долгота 149.00 высота над уровнем моря 52 м.

В архиве по умолчанию представлена погода на Острове Спафарьева за последнюю неделю. Архивные данные за месяц целиком и за предыдущие месяцы, начиная с января 2011 года, Вы можете получить, выбрав интересующий диапазон дат из раскрывающегося списка и нажав кнопку "Ввод!".


*Определитесь, кто Вы:
робот инопланетянин человек

Внимание! Время в таблицах - всемирное. Для получения местного времени необходимо прибавить поправку, которая равна 11 ч.

Смотрите также архив погоды в соседних городах и на ближайших метеорологических станциях:

Погода в Талоне (Магаданская область, Россия) (72 км)
Погода в Армани (Магаданская область, Россия) (84 км)
Погода в Нагаева (Магаданская область, Россия) (106 км)
Погода в Магадане (Магаданская область, Россия) (106 км)
Погода в Оле (Магаданская область, Россия) (133 км)
Погода на Мысе Алевина (Магаданская область, Россия) (137 км)
Погода в Палатке (Магаданская область, Россия) (150 км)
Погода в Мадауне (Магаданская область, Россия) (187 км)
Погода в Усть-Омчуге (Магаданская область, Россия) (222 км)
Погода на Мысе Братьев (Магаданская область, Россия) (245 км)

Пояснения к столбцам:

Ветер - указаны скорость ветра в м/с - средняя за 10 мин, порывы в срок и между сроками (в фигурных скобках) и направление, откуда дует ветер: С - северный, СВ - северо-восточный, В - восточный, ЮВ - юго-восточный, Ю - южный, ЮЗ - юго-западный, З - западный, СЗ - северо-западный.
Видимость - горизонтальная дальность видимости в метрах или километрах. При видимости от 1 до 10 км при отсутствии осадков обычно наблюдается дымка, при ухудшении видимости до 1 км и менее - туман. В сухую погоду видимость может ухудшаться дымом, пылью или мглою.
Явления - указаны атмосферные явления, наблюдавшиеся в срок или в последний час перед сроком; фигурными скобками обозначены явления, наблюдавшиеся между сроками (за 1-3 часа до срока); квадратными скобками обозначены град или гололедные отложения с указанием их диаметра в мм.
Облачность - указаны через наклонную черту общая и нижняя облачность в баллах и высота нижней границы облаков в метрах; квадратными скобками обозначены формы облаков: Ci - перистые, Cs - перисто-слоистые, Cc - перисто-кучевые, Ac - высококучевые, As - высокослоистые, Sc - слоисто-кучевые, Ns - слоисто-дождевые, Cu - кучевые, Cb - кучево-дождевые. Подробнее классификацию облаков см. в Атласе облаков (PDF).
T - Температура воздуха - температура, измеренная на высоте 2 м над землей.
Td - Температура точки росы - температура, при понижении до которой содержащийся в воздухе водяной пар достигнет насыщения.
f - Относительная влажность воздуха - влажноcть воздуха, измеренная на высоте 2 м над землей.
Te - Эффективная температура - температура, которую ощущает одетый по сезону человек в тени. Характеристика душности погоды. При расчете учитывается влияние влажности воздуха и скорости ветра на теплоощущения человека.
Tes - Эффективная температура на солнце - температура, которую ощущает человек, с поправкой на солнечный нагрев. Характеристика знойности погоды. Зависит от высоты солнца над горизонтом, облачности и скорости ветра. Ночью, в пасмурную погоду, а также при ветре 12 м/с и более поправка равна нулю.
P - Атмосферное давление - приведенное к уровню моря атмосферное давление.
Po - Атмосферное давление - измеренное на уровне метеостанции атмосферное давление.
Tmin - Минимальная температура - минимум температуры воздуха на высоте 2 м над землей.
Tmax - Максимальная температура - максимум температуры воздуха на высоте 2 м над землей.
R - Количество осадков - Количество выпавших осадков за период времени, мм. При наведении курсора мыши на число - период времени, за который выпало указанное количество осадков.
R24 - Количество осадков - Количество выпавших осадков за 24 часа, мм.
S - Снежный покров - Высота снежного покрова, см. При наведении курсора мыши на число - состояние снежного покрова и степень покрытия местности в баллах.